Back to catalog

FENGYUN 1C DEB

AliveSSO
NORAD 30938·DEBRIS·🇨🇳 China

Launched May 10, 1999 from Taiyuan Satellite Launch Center

Loading…

Next Passes (next 24 hours)

TLE

FreshSource: Space-Track

Epoch: Sep 13, 2026, 00:11 UTC

1 30938U 99025BAC 26256.00785148  .00000356  00000-0  18497-3 0  9998
2 30938  98.5843 266.4174 0044630 269.3733 117.8138 14.20176054 10125

Track FENGYUN 1C DEB in real time with AllMySat

Download on the App Store